This demonstration page uses our WeatherBlox Daily Observations layout. Learn more.

Left ArrowRight Arrow

47.50024, -111.30081

Hourly Observations for May 18, 2019

Temp ( °F °C ) Dew Point ( °F °C ) Humidity (%) Winds ( mph kmh ) Pressure ( in mb ) Visibility ( mi km ) Precip ( " mm )
12:03 am 00:03 Cloudy with Light Rain 38 3.3 38 3.3 100 100 NNE 7 11 29.92 1013 10 16 0.01 0.25
12:53 am 00:53 Cloudy 37 2.8 37 2.8 100 100 NNE 6 9 29.93 1013 10 16 0.01 0.25
1:27 am 01:27 Cloudy 36 2.2 36 2.2 100 100 N 6 9 29.95 1014 10 16 0.00 0.00
1:53 am 01:53 Cloudy with Light Rain 36 2.2 36 2.2 100 100 N 6 9 29.93 1014 8 13 0.00 0.03
2:28 am 02:28 Cloudy with Light Rain 36 2.2 36 2.2 100 100 NNE 7 11 29.96 1014 8 13 0.01 0.25
2:53 am 02:53 Cloudy 36 2.2 36 2.2 100 100 N 8 13 29.93 1014 10 16 0.01 0.25
3:53 am 03:53 Cloudy with Light Rain 34 1.1 34 1.1 100 100 N 8 13 29.95 1014 6 10 0.01 0.25
4:09 am 04:09 Cloudy with Light Snow 34 1.1 34 1.1 100 100 NNE 10 17 29.98 1015 5 8 0.01 0.25
4:46 am 04:46 Cloudy with Light Snow 33 0.6 33 0.6 100 100 N 8 13 30.00 1016 4 6 0.02 0.51
4:53 am 04:53 Cloudy with Light Snow 33 0.6 33 0.6 100 100 N 7 11 29.98 1015 5 8 0.02 0.51
5:37 am 05:37 Cloudy with Light Snow 32 0 32 0 100 100 N 7 11 30.02 1017 3 5 0.00 0.03
5:53 am 05:53 Cloudy with Light Snow 32 0 32 0 100 100 NNE 7 11 29.99 1016 2 3 0.00 0.03
6:38 am 06:38 Cloudy with Mist and Fog 32 0 32 0 100 100 N 5 7 30.03 1017 3 5 0.01 0.25
6:53 am 06:53 Cloudy with Light Snow 32 0 32 0 100 100 N 5 7 30.01 1016 2 3 0.01 0.25
7:06 am 07:06 Cloudy with Light Snow 32 0 32 0 100 100 NNW 5 7 30.04 1017 1 2 0.00 0.03
7:18 am 07:18 Cloudy with Light Snow 32 0 32 0 100 100 NW 5 7 30.04 1017 1 2 0.01 0.25
7:45 am 07:45 Cloudy with Light Snow 32 0 32 0 100 100 N 5 7 30.05 1018 1 2 0.02 0.51
7:53 am 07:53 Cloudy with Light Snow 32 0 32 0 100 100 NNW 6 9 30.03 1017 1 2 0.02 0.51
8:24 am 08:24 Cloudy with Light Snow 32 0 32 0 100 100 N 8 13 30.06 1018 1 1 0.02 0.51
8:53 am 08:53 Cloudy with Light Snow 32 0 32 0 100 100 N 7 11 30.05 1018 1 1 0.04 1.02
9:48 am 09:48 Cloudy with Light Snow 32 0 32 0 100 100 NE 6 9 30.08 1019 1 2 0.03 0.76
9:53 am 09:53 Cloudy with Light Snow 33 0.6 33 0.6 100 100 NNE 7 11 30.06 1018 1 2 0.03 0.76
10:04 am 10:04 Cloudy with Light Snow 33 0.6 33 0.6 100 100 NE 8 13 30.07 1018 1 2 0.01 0.25
10:31 am 10:31 Cloudy with Light Snow 34 1.1 34 1.1 100 100 NE 14 22 30.07 1018 1 2 0.02 0.51
10:53 am 10:53 Cloudy with Light Snow 35 1.7 34 1.1 96 96 NE 12 19 30.07 1018 2 3 0.03 0.76
11:31 am 11:31 Cloudy with Light Snow 36 2.2 36 2.2 100 100 ENE 9 15 30.07 1018 3 5 0.01 0.25
11:53 am 11:53 Cloudy with Light Rain 36 2.2 36 2.2 100 100 ENE 9 15 30.08 1019 7 11 0.02 0.51
12:53 pm 12:53 Cloudy with Light Rain 39 3.9 38 3.3 96 96 E 12 19 30.08 1019 7 11 0.01 0.25
1:09 pm 13:09 Cloudy with Light Rain 39 3.9 38 3.3 96 96 ESE 12 19 30.05 1018 9 14 0.00 0.03
1:22 pm 13:22 Cloudy with Light Rain 40 4.4 38 3.3 93 93 E 12 19 30.05 1017 10 16 0.00 0.03
1:42 pm 13:42 Cloudy with Light Rain 41 5 39 3.9 93 93 E 13 20 30.04 1017 10 16 0.01 0.25
1:53 pm 13:53 Cloudy with Light Rain 40 4.4 39 3.9 97 97 E 13 20 30.08 1019 8 13 0.01 0.25
2:46 pm 14:46 Cloudy with Light Rain 40 4.4 38 3.3 93 93 ENE 8 13 30.05 1017 10 16 0.00 0.03
2:53 pm 14:53 Cloudy 41 5 39 3.9 93 93 NE 10 17 30.08 1019 10 16 0.00 0.03
3:08 pm 15:08 Cloudy with Light Rain 41 5 36 2.2 82 82 NNE 9 15 30.05 1018 10 16 0.00 0.03
3:23 pm 15:23 Cloudy with Light Rain 42 5.6 38 3.3 85 85 E 6 9 30.04 1017 10 16 0.00 0.03
3:53 pm 15:53 Cloudy with Light Rain 41 5 37 2.8 86 86 NE 9 15 30.09 1019 10 16 0.00 0.03
4:53 pm 16:53 Cloudy with Light Rain 40 4.4 37 2.8 89 89 ENE 15 24 30.10 1019 10 16 0.00 0.03
5:53 pm 17:53 Cloudy with Light Rain 38 3.3 37 2.8 97 97 NE 15 24 30.11 1020 10 16 0.01 0.25
6:53 pm 18:53 Cloudy with Light Rain 38 3.3 36 2.2 93 93 undefined N/A 30.11 1020 10 16 0.01 0.25
7:46 pm 19:46 Cloudy with Light Rain 37 2.8 36 2.2 96 96 NE 14 22 30.09 1019 10 16 0.00 0.03
7:53 pm 19:53 Cloudy with Light Rain 37 2.8 36 2.2 96 96 NE 12 19 30.13 1020 7 11 0.00 0.03
8:04 pm 20:04 Cloudy with Light Rain 36 2.2 36 2.2 100 100 NE 13 20 30.11 1020 7 11 0.00 0.03
8:18 pm 20:18 Cloudy with Light Rain 36 2.2 36 2.2 100 100 NE 10 17 30.11 1020 6 10 0.01 0.25
8:53 pm 20:53 Cloudy with Light Rain 36 2.2 36 2.2 100 100 E 10 17 30.14 1021 9 14 0.02 0.51
9:01 pm 21:01 Cloudy with Light Rain 36 2.2 35 1.7 97 97 E 9 15 30.12 1020 10 16 0.01 0.25
9:53 pm 21:53 Cloudy with Light Rain 36 2.2 36 2.2 100 100 ENE 9 15 30.14 1021 10 16 0.01 0.25
10:01 pm 22:01 Cloudy with Light Rain 36 2.2 36 2.2 100 100 E 9 15 30.12 1020 10 16 0.00 0.03
10:11 pm 22:11 Cloudy with Light Rain 36 2.2 35 1.7 97 97 E 16 26 30.12 1020 10 16 0.01 0.25
10:19 pm 22:19 Cloudy with Light Rain 36 2.2 34 1.1 93 93 E 15 24 30.12 1020 10 16 0.01 0.25
10:53 pm 22:53 Cloudy with Light Rain 36 2.2 34 1.1 93 93 E 14 22 30.13 1020 10 16 0.01 0.25
11:12 pm 23:12 Cloudy with Light Rain 36 2.2 35 1.7 97 97 ENE 8 13 30.12 1020 10 16 0.00 0.03
11:28 pm 23:28 Cloudy with Light Rain 36 2.2 35 1.7 97 97 E 13 20 30.12 1020 10 16 0.00 0.03
11:53 pm 23:53 Cloudy with Light Rain 36 2.2 34 1.1 93 93 E 13 20 30.13 1020 10 16 0.00 0.03

Powered by AerisWeather